• In Hungary
  • List of Countries
  • For 7 days
  • Water Temperature
  • Satellite Maps
  • Weather Map
  • News
  • Weather Widgets
  • user-avatar
    Login

    Hourly Weather Potots'ke

    Today, 23 November, Thursday

    Time Temperature Precipitation Wind Pressure Humidity
    00:00 -2°C° 0 mm 3 mps 748 mmHg 79%
    01:00 -2°C° 0 mm 3 mps 749 mmHg 81%
    02:00 -4°C° 0 mm 3 mps 749 mmHg 83%
    03:00 -4°C° 0 mm 3 mps 749 mmHg 83%
    04:00 -4°C° 0 mm 3 mps 750 mmHg 83%
    05:00 -4°C° 0 mm 4 mps 750 mmHg 82%
    06:00 -4°C° 0 mm 4 mps 750 mmHg 82%
    07:00 -4°C° 0 mm 4 mps 751 mmHg 81%
    08:00 -3°C° 0 mm 4 mps 751 mmHg 77%
    09:00 -2°C° 0 mm 5 mps 751 mmHg 71%
    10:00 -1°C° 0 mm 5 mps 751 mmHg 65%
    11:00 -1°C° 0 mm 5 mps 751 mmHg 59%
    12:00 0°C° 0 mm 5 mps 751 mmHg 58%
    13:00 0°C° 0 mm 5 mps 751 mmHg 57%
    14:00 0°C° 0 mm 5 mps 751 mmHg 55%
    15:00 -1°C° 0 mm 4 mps 751 mmHg 60%
    16:00 -2°C° 0 mm 4 mps 752 mmHg 65%
    17:00 -2°C° 0 mm 3 mps 752 mmHg 70%
    18:00 -2°C° 0 mm 3 mps 752 mmHg 72%
    19:00 -2°C° 0 mm 3 mps 752 mmHg 73%
    20:00 -4°C° 0 mm 3 mps 752 mmHg 75%
    21:00 -4°C° 0 mm 3 mps 752 mmHg 76%
    22:00 -4°C° 0 mm 3 mps 753 mmHg 77%
    23:00 -4°C° 0 mm 3 mps 753 mmHg 77%

    Tomorrow, 24 November, Friday

    Time Temperature Precipitation Wind Pressure Humidity
    00:00 -4°C° 0 mm 3 mps 753 mmHg 78%
    01:00 -4°C° 0 mm 3 mps 753 mmHg 78%
    02:00 -4°C° 0 mm 3 mps 753 mmHg 79%
    03:00 -5°C° 0 mm 3 mps 753 mmHg 79%
    04:00 -5°C° 0 mm 3 mps 753 mmHg 80%
    05:00 -5°C° 0 mm 3 mps 753 mmHg 81%
    06:00 -5°C° 0 mm 3 mps 753 mmHg 80%
    07:00 -5°C° 0 mm 3 mps 754 mmHg 79%
    08:00 -5°C° 0 mm 3 mps 754 mmHg 78%
    09:00 -4°C° 0 mm 3 mps 754 mmHg 71%
    10:00 -2°C° 0 mm 3 mps 754 mmHg 64%
    11:00 -1°C° 0 mm 3 mps 755 mmHg 58%
    12:00 -1°C° 0 mm 3 mps 755 mmHg 56%
    13:00 0°C° 0 mm 3 mps 755 mmHg 54%
    14:00 +1°C° 0 mm 2 mps 755 mmHg 53%
    15:00 -1°C° 0 mm 2 mps 755 mmHg 58%
    16:00 -2°C° 0 mm 2 mps 755 mmHg 63%
    17:00 -1°C° 0 mm 1 mps 756 mmHg 68%
    18:00 -1°C° 0 mm 1 mps 756 mmHg 69%
    19:00 -1°C° 0 mm 1 mps 756 mmHg 71%
    20:00 -2°C° 0 mm 1 mps 757 mmHg 73%
    21:00 -2°C° 0 mm 1 mps 757 mmHg 73%
    22:00 -2°C° 0 mm 1 mps 757 mmHg 74%
    23:00 -2°C° 0 mm 1 mps 757 mmHg 75%

    Day after tomorrow, 25 November, Saturday

    Time Temperature Precipitation Wind Pressure Humidity
    00:00 -4°C° 0 mm 2 mps 757 mmHg 76%
    01:00 -4°C° 0 mm 2 mps 757 mmHg 76%
    02:00 -4°C° 0 mm 2 mps 758 mmHg 77%
    03:00 -4°C° 0 mm 2 mps 758 mmHg 78%
    04:00 -4°C° 0 mm 2 mps 757 mmHg 78%
    05:00 -4°C° 0 mm 2 mps 757 mmHg 79%
    06:00 -4°C° 0 mm 2 mps 757 mmHg 78%
    07:00 -5°C° 0 mm 3 mps 757 mmHg 77%
    08:00 -5°C° 0 mm 3 mps 758 mmHg 76%
    09:00 -4°C° 0 mm 3 mps 758 mmHg 69%
    10:00 -1°C° 0 mm 3 mps 757 mmHg 63%
    11:00 -1°C° 0 mm 4 mps 757 mmHg 57%
    12:00 0°C° 0 mm 3 mps 757 mmHg 56%
    13:00 +1°C° 0 mm 3 mps 757 mmHg 55%
    14:00 +1°C° 0 mm 3 mps 756 mmHg 54%
    15:00 0°C° 0 mm 3 mps 756 mmHg 59%
    16:00 -1°C° 0 mm 3 mps 756 mmHg 65%
    17:00 -1°C° 0 mm 2 mps 756 mmHg 70%
    18:00 -2°C° 0 mm 3 mps 756 mmHg 71%
    19:00 -2°C° 0 mm 3 mps 756 mmHg 73%
    20:00 -2°C° 0 mm 3 mps 756 mmHg 74%
    21:00 -2°C° 0 mm 3 mps 756 mmHg 76%
    22:00 -2°C° 0 mm 3 mps 756 mmHg 78%
    23:00 -2°C° 0 mm 3 mps 756 mmHg 80%

    26 November, Sunday

    Time Temperature Precipitation Wind Pressure Humidity
    00:00 -2°C° 0 mm 3 mps 755 mmHg 82%
    01:00 -2°C° 0 mm 3 mps 755 mmHg 84%
    02:00 -2°C° 0 mm 2 mps 755 mmHg 86%
    03:00 -2°C° 0 mm 2 mps 755 mmHg 88%
    04:00 -2°C° 0 mm 2 mps 754 mmHg 89%
    05:00 -2°C° 0 mm 2 mps 754 mmHg 90%
    06:00 -2°C° 0 mm 3 mps 754 mmHg 89%
    07:00 -2°C° 0 mm 3 mps 754 mmHg 89%
    08:00 -2°C° 0 mm 3 mps 754 mmHg 88%
    09:00 -1°C° 0 mm 3 mps 754 mmHg 84%
    10:00 0°C° 0 mm 4 mps 754 mmHg 79%
    11:00 +1°C° 0 mm 4 mps 753 mmHg 75%
    12:00 +3°C° 0 mm 4 mps 753 mmHg 75%
    13:00 +3°C° 0 mm 4 mps 753 mmHg 75%
    14:00 +4°C° 0 mm 4 mps 752 mmHg 76%
    15:00 +3°C° 0 mm 3 mps 752 mmHg 80%
    16:00 +2°C° 0 mm 3 mps 752 mmHg 85%
    17:00 +1°C° 0 mm 3 mps 752 mmHg 90%
    18:00 +1°C° 0 mm 3 mps 752 mmHg 92%
    19:00 +1°C° 0 mm 3 mps 752 mmHg 93%
    20:00 0°C° 0 mm 4 mps 752 mmHg 95%
    21:00 0°C° 0 mm 4 mps 752 mmHg 95%
    22:00 0°C° 0 mm 4 mps 752 mmHg 95%
    23:00 -1°C° 0 mm 4 mps 752 mmHg 95%

    27 November, Monday

    Time Temperature Precipitation Wind Pressure Humidity
    00:00 -1°C° 0 mm 4 mps 751 mmHg 94%
    01:00 -1°C° 0 mm 4 mps 751 mmHg 94%
    02:00 -1°C° 0 mm 4 mps 751 mmHg 93%
    03:00 -1°C° 0 mm 4 mps 751 mmHg 92%
    04:00 -1°C° 0 mm 4 mps 751 mmHg 91%
    05:00 -1°C° 0 mm 4 mps 751 mmHg 90%
    06:00 -1°C° 0 mm 4 mps 751 mmHg 87%
    07:00 -1°C° 0 mm 4 mps 751 mmHg 84%
    08:00 -1°C° 0 mm 5 mps 751 mmHg 82%
    09:00 0°C° 0 mm 5 mps 751 mmHg 76%
    10:00 +1°C° 0 mm 5 mps 751 mmHg 71%
    11:00 +2°C° 0 mm 5 mps 751 mmHg 66%
    12:00 +2°C° 0 mm 5 mps 751 mmHg 64%
    13:00 +3°C° 0 mm 5 mps 750 mmHg 62%
    14:00 +3°C° 0 mm 5 mps 750 mmHg 61%
    15:00 +2°C° 0 mm 5 mps 750 mmHg 63%
    16:00 +2°C° 0 mm 5 mps 750 mmHg 65%
    17:00 +1°C° 0 mm 5 mps 749 mmHg 67%
    18:00 +1°C° 0 mm 5 mps 749 mmHg 67%
    19:00 +1°C° 0 mm 5 mps 749 mmHg 68%
    20:00 -1°C° 0 mm 6 mps 749 mmHg 69%
    21:00 -1°C° 0.1 mm 6 mps 749 mmHg 71%
    22:00 -1°C° 0.1 mm 6 mps 749 mmHg 73%
    23:00 -1°C° 0.1 mm 6 mps 749 mmHg 75%

    28 November, Tuesday

    Time Temperature Precipitation Wind Pressure Humidity
    00:00 -1°C° 0.2 mm 6 mps 748 mmHg 76%
    01:00 -1°C° 0.2 mm 7 mps 748 mmHg 77%
    02:00 -1°C° 0.2 mm 7 mps 748 mmHg 78%
    03:00 0°C° 0.3 mm 7 mps 748 mmHg 78%
    04:00 0°C° 0.3 mm 7 mps 747 mmHg 78%
    05:00 0°C° 0.3 mm 7 mps 747 mmHg 78%
    06:00 0°C° 0.2 mm 7 mps 747 mmHg 77%
    07:00 0°C° 0.2 mm 7 mps 748 mmHg 76%
    08:00 0°C° 0.2 mm 7 mps 748 mmHg 75%
    09:00 0°C° 0 mm 7 mps 748 mmHg 72%
    10:00 +2°C° 0 mm 7 mps 748 mmHg 70%
    11:00 +3°C° 0 mm 7 mps 748 mmHg 67%
    12:00 +3°C° 0 mm 6 mps 747 mmHg 66%
    13:00 +3°C° 0 mm 6 mps 747 mmHg 65%
    14:00 +4°C° 0 mm 6 mps 747 mmHg 63%
    15:00 +3°C° 0.1 mm 6 mps 747 mmHg 66%
    16:00 +3°C° 0.1 mm 5 mps 747 mmHg 69%
    17:00 +3°C° 0.1 mm 5 mps 747 mmHg 72%
    18:00 +2°C° 0.8 mm 5 mps 747 mmHg 76%
    19:00 +2°C° 0.8 mm 5 mps 747 mmHg 79%
    20:00 +2°C° 0.8 mm 5 mps 747 mmHg 83%
    21:00 +2°C° 1.1 mm 5 mps 747 mmHg 85%
    22:00 +3°C° 1.1 mm 4 mps 747 mmHg 86%
    23:00 +3°C° 1.1 mm 4 mps 747 mmHg 88%
    Show more